When you browse on this site, cookies collect data to enhance your experience and personalize the content and advertising you see.
Visit our Privacy Policy to learn more. By continuing to use the site, you agree to this use of cookies and data.
  • In United Kingdom
  • List of Countries
  • For 7 days
  • Water Temperature
  • Weather Map
  • Weather Widgets
  • user-avatar
    Login

    Hourly Weather Pest County

    Today, 17 October, Thursday

    Time Temperature Precipitation Wind Pressure Humidity
    00:00 +14°C° 0 mm 2 mps 744 mmHg 73%
    01:00 +13°C° 0 mm 2 mps 744 mmHg 73%
    02:00 +13°C° 0 mm 1 mps 744 mmHg 72%
    03:00 +13°C° 0 mm 1 mps 744 mmHg 72%
    04:00 +13°C° 0 mm 1 mps 744 mmHg 71%
    05:00 +13°C° 0 mm 1 mps 744 mmHg 69%
    06:00 +13°C° 0 mm 1 mps 744 mmHg 67%
    07:00 +13°C° 0 mm 1 mps 744 mmHg 66%
    08:00 +15°C° 0 mm 1 mps 744 mmHg 57%
    09:00 +18°C° 0 mm 1 mps 744 mmHg 49%
    10:00 +20°C° 0 mm 1 mps 745 mmHg 40%
    11:00 +19°C° 0 mm 0 mps 744 mmHg 38%
    12:00 +20°C° 0 mm 0 mps 744 mmHg 36%
    13:00 +21°C° 0 mm 0 mps 744 mmHg 34%
    14:00 +20°C° 0 mm 0 mps 744 mmHg 37%
    15:00 +20°C° 0 mm 0 mps 744 mmHg 40%
    16:00 +22°C° 0 mm 1 mps 744 mmHg 43%
    17:00 +21°C° 0 mm 1 mps 744 mmHg 46%
    18:00 +19°C° 0 mm 1 mps 744 mmHg 48%
    19:00 +18°C° 0 mm 1 mps 743 mmHg 51%
    20:00 +18°C° 0 mm 1 mps 744 mmHg 52%
    21:00 +16°C° 0 mm 1 mps 744 mmHg 54%
    22:00 +16°C° 0 mm 1 mps 744 mmHg 56%
    23:00 +16°C° 0 mm 1 mps 744 mmHg 59%

    Tomorrow, 18 October, Friday

    Time Temperature Precipitation Wind Pressure Humidity
    00:00 +15°C° 0 mm 1 mps 743 mmHg 61%
    01:00 +15°C° 0 mm 1 mps 743 mmHg 64%
    02:00 +14°C° 0 mm 1 mps 743 mmHg 66%
    03:00 +14°C° 0 mm 1 mps 743 mmHg 69%
    04:00 +14°C° 0 mm 1 mps 743 mmHg 72%
    05:00 +14°C° 0 mm 1 mps 743 mmHg 73%
    06:00 +14°C° 0 mm 1 mps 743 mmHg 74%
    07:00 +14°C° 0 mm 1 mps 743 mmHg 74%
    08:00 +16°C° 0 mm 1 mps 743 mmHg 69%
    09:00 +18°C° 0 mm 1 mps 743 mmHg 63%
    10:00 +20°C° 0 mm 1 mps 743 mmHg 57%
    11:00 +20°C° 0 mm 2 mps 743 mmHg 53%
    12:00 +21°C° 0 mm 2 mps 743 mmHg 49%
    13:00 +23°C° 0 mm 2 mps 742 mmHg 45%
    14:00 +23°C° 0 mm 2 mps 742 mmHg 47%
    15:00 +23°C° 0 mm 2 mps 742 mmHg 49%
    16:00 +21°C° 0 mm 2 mps 741 mmHg 50%
    17:00 +20°C° 0 mm 2 mps 741 mmHg 53%
    18:00 +19°C° 0 mm 2 mps 741 mmHg 56%
    19:00 +19°C° 0 mm 1 mps 741 mmHg 60%
    20:00 +18°C° 0 mm 1 mps 741 mmHg 60%
    21:00 +18°C° 0 mm 1 mps 742 mmHg 61%
    22:00 +16°C° 0 mm 1 mps 742 mmHg 62%
    23:00 +16°C° 0 mm 2 mps 742 mmHg 62%

    Day after tomorrow, 19 October, Saturday

    Time Temperature Precipitation Wind Pressure Humidity
    00:00 +15°C° 0 mm 2 mps 742 mmHg 62%
    01:00 +15°C° 0 mm 2 mps 742 mmHg 62%
    02:00 +15°C° 0 mm 2 mps 742 mmHg 65%
    03:00 +14°C° 0 mm 2 mps 742 mmHg 67%
    04:00 +14°C° 0 mm 2 mps 742 mmHg 70%
    05:00 +14°C° 0 mm 2 mps 742 mmHg 71%
    06:00 +13°C° 0 mm 2 mps 742 mmHg 73%
    07:00 +13°C° 0 mm 2 mps 742 mmHg 74%
    08:00 +15°C° 0 mm 2 mps 742 mmHg 69%
    09:00 +17°C° 0 mm 3 mps 742 mmHg 63%
    10:00 +19°C° 0 mm 3 mps 742 mmHg 57%
    11:00 +20°C° 0 mm 3 mps 742 mmHg 51%
    12:00 +21°C° 0 mm 4 mps 742 mmHg 46%
    13:00 +22°C° 0 mm 4 mps 742 mmHg 40%
    14:00 +22°C° 0 mm 4 mps 742 mmHg 41%
    15:00 +22°C° 0 mm 3 mps 741 mmHg 41%
    16:00 +21°C° 0 mm 3 mps 741 mmHg 42%
    17:00 +20°C° 0 mm 2 mps 741 mmHg 45%
    18:00 +19°C° 0 mm 2 mps 741 mmHg 48%
    19:00 +18°C° 0 mm 2 mps 742 mmHg 52%
    20:00 +17°C° 0 mm 2 mps 742 mmHg 53%
    21:00 +17°C° 0 mm 2 mps 742 mmHg 55%
    22:00 +16°C° 0 mm 2 mps 742 mmHg 57%
    23:00 +16°C° 0 mm 2 mps 742 mmHg 59%

    20 October, Sunday

    Time Temperature Precipitation Wind Pressure Humidity
    00:00 +16°C° 0 mm 2 mps 742 mmHg 62%
    01:00 +15°C° 0 mm 2 mps 741 mmHg 64%
    02:00 +15°C° 0 mm 2 mps 741 mmHg 65%
    03:00 +15°C° 0 mm 2 mps 741 mmHg 66%
    04:00 +14°C° 0 mm 2 mps 741 mmHg 67%
    05:00 +14°C° 0 mm 2 mps 742 mmHg 67%
    06:00 +14°C° 0 mm 2 mps 742 mmHg 67%
    07:00 +14°C° 0 mm 2 mps 742 mmHg 67%
    08:00 +17°C° 0 mm 3 mps 742 mmHg 61%
    09:00 +19°C° 0 mm 3 mps 742 mmHg 54%
    10:00 +21°C° 0 mm 4 mps 743 mmHg 48%
    11:00 +22°C° 0 mm 4 mps 743 mmHg 44%
    12:00 +23°C° 0 mm 5 mps 743 mmHg 40%
    13:00 +25°C° 0 mm 5 mps 743 mmHg 36%
    14:00 +25°C° 0 mm 4 mps 742 mmHg 39%
    15:00 +23°C° 0 mm 4 mps 742 mmHg 42%
    16:00 +22°C° 0 mm 3 mps 742 mmHg 45%
    17:00 +21°C° 0 mm 3 mps 743 mmHg 49%
    18:00 +20°C° 0 mm 3 mps 743 mmHg 54%
    19:00 +19°C° 0 mm 2 mps 743 mmHg 58%
    20:00 +18°C° 0 mm 2 mps 744 mmHg 60%
    21:00 +18°C° 0 mm 2 mps 744 mmHg 63%
    22:00 +18°C° 0 mm 2 mps 744 mmHg 65%
    23:00 +18°C° 0 mm 1 mps 744 mmHg 66%

    21 October, Monday

    Time Temperature Precipitation Wind Pressure Humidity
    00:00 +18°C° 0 mm 1 mps 744 mmHg 67%
    01:00 +16°C° 0 mm 1 mps 744 mmHg 68%
    02:00 +16°C° 0 mm 1 mps 745 mmHg 68%
    03:00 +16°C° 0 mm 1 mps 745 mmHg 69%
    04:00 +15°C° 0 mm 1 mps 745 mmHg 69%
    05:00 +15°C° 0 mm 1 mps 745 mmHg 70%
    06:00 +15°C° 0 mm 1 mps 745 mmHg 71%
    07:00 +15°C° 0 mm 1 mps 746 mmHg 73%
    08:00 +18°C° 0 mm 1 mps 746 mmHg 67%
    09:00 +19°C° 0 mm 2 mps 746 mmHg 61%
    10:00 +21°C° 0 mm 2 mps 746 mmHg 54%
    11:00 +23°C° 0 mm 2 mps 746 mmHg 50%
    12:00 +24°C° 0 mm 2 mps 746 mmHg 46%
    13:00 +25°C° 0 mm 2 mps 746 mmHg 42%
    14:00 +25°C° 0 mm 2 mps 746 mmHg 43%
    15:00 +24°C° 0 mm 2 mps 746 mmHg 43%
    16:00 +24°C° 0 mm 1 mps 746 mmHg 44%
    17:00 +22°C° 0 mm 1 mps 746 mmHg 47%
    18:00 +21°C° 0 mm 1 mps 746 mmHg 49%
    19:00 +20°C° 0 mm 1 mps 746 mmHg 52%
    20:00 +19°C° 0 mm 1 mps 746 mmHg 53%
    21:00 +19°C° 0 mm 1 mps 746 mmHg 54%
    22:00 +18°C° 0 mm 1 mps 746 mmHg 55%
    23:00 +18°C° 0 mm 1 mps 746 mmHg 56%

    22 October, Tuesday

    Time Temperature Precipitation Wind Pressure Humidity
    00:00 +18°C° 0 mm 1 mps 746 mmHg 58%
    01:00 +16°C° 0 mm 1 mps 746 mmHg 59%
    02:00 +16°C° 0 mm 1 mps 746 mmHg 61%
    03:00 +15°C° 0 mm 2 mps 746 mmHg 62%
    04:00 +15°C° 0 mm 2 mps 746 mmHg 64%
    05:00 +15°C° 0 mm 2 mps 746 mmHg 65%
    06:00 +15°C° 0 mm 2 mps 746 mmHg 67%
    07:00 +15°C° 0 mm 2 mps 746 mmHg 68%
    08:00 +16°C° 0 mm 2 mps 746 mmHg 62%
    09:00 +18°C° 0 mm 2 mps 746 mmHg 55%
    10:00 +20°C° 0 mm 2 mps 746 mmHg 49%
    11:00 +21°C° 0 mm 2 mps 746 mmHg 46%
    12:00 +23°C° 0 mm 2 mps 746 mmHg 42%
    13:00 +24°C° 0 mm 2 mps 746 mmHg 39%
    14:00 +24°C° 0 mm 2 mps 745 mmHg 41%
    15:00 +23°C° 0 mm 2 mps 745 mmHg 43%
    16:00 +23°C° 0 mm 1 mps 744 mmHg 45%
    17:00 +20°C° 0 mm 2 mps 744 mmHg 48%
    18:00 +19°C° 0 mm 2 mps 744 mmHg 52%
    19:00 +18°C° 0 mm 2 mps 744 mmHg 55%
    20:00 +18°C° 0 mm 2 mps 744 mmHg 58%
    21:00 +17°C° 0 mm 2 mps 744 mmHg 60%
    22:00 +17°C° 0 mm 2 mps 744 mmHg 62%
    23:00 +16°C° 0 mm 2 mps 744 mmHg 64%
    Show more